EFW3ZA EGKK-LEZL

Flight info

Callsign EFW3ZA
Flight time 2h 16m
Altitude 35000
Route IMVUR1Z IMVUR N63 SAM M195 MARUK N621 LELNA DCT NOVAN DCT DELOG N864 MONTO N857 HIJ HIJ4E
Aircraft A321/M-SDE3FGIJ1KRWXY/SB1

Departure

Time 2026-05-06 17:07
Airport London Gatwick Airport (EGKK)

Arrival

Time 2026-05-06 19:23
Airport Seville Airport (LEZL)
Time Latitude Longitude Altitude Speed Heading
2026-05-06 16:35 51.15467 -0.17090 205 ft 0 kts 348°
2026-05-06 16:53 51.15447 -0.17083 216 ft 2 kts 348°
2026-05-06 16:54 51.15426 -0.17070 205 ft 4 kts 303°
2026-05-06 16:54 51.15421 -0.17035 213 ft 4 kts 259°
2026-05-06 16:54 51.15423 -0.17023 205 ft 0 kts 258°
2026-05-06 16:57 51.15420 -0.17041 205 ft 6 kts 258°
2026-05-06 16:57 51.15408 -0.17126 205 ft 9 kts 251°
2026-05-06 16:58 51.15379 -0.17247 217 ft 13 kts 251°
2026-05-06 16:58 51.15331 -0.17367 217 ft 14 kts 214°
2026-05-06 16:58 51.15295 -0.17492 205 ft 12 kts 259°
2026-05-06 16:58 51.15278 -0.17627 205 ft 11 kts 258°
2026-05-06 16:59 51.15270 -0.17682 205 ft 3 kts 257°
2026-05-06 16:59 51.15268 -0.17696 205 ft 0 kts 257°
2026-05-06 16:59 51.15268 -0.17700 205 ft 1 kts 257°
2026-05-06 17:00 51.15256 -0.17785 208 ft 15 kts 257°
2026-05-06 17:00 51.15233 -0.17950 210 ft 16 kts 257°
2026-05-06 17:00 51.15209 -0.18121 205 ft 16 kts 257°
2026-05-06 17:00 51.15187 -0.18300 208 ft 17 kts 262°
2026-05-06 17:01 51.15165 -0.18489 215 ft 18 kts 258°
2026-05-06 17:01 51.15137 -0.18687 205 ft 19 kts 258°
2026-05-06 17:01 51.15109 -0.18894 213 ft 20 kts 257°
2026-05-06 17:01 51.15080 -0.19108 212 ft 20 kts 258°
2026-05-06 17:02 51.15045 -0.19258 205 ft 12 kts 212°
2026-05-06 17:02 51.14973 -0.19280 208 ft 10 kts 218°
2026-05-06 17:02 51.14946 -0.19409 213 ft 21 kts 257°
2026-05-06 17:02 51.14910 -0.19678 214 ft 26 kts 258°
2026-05-06 17:03 51.14874 -0.19936 215 ft 22 kts 257°
2026-05-06 17:03 51.14841 -0.20172 214 ft 21 kts 257°
2026-05-06 17:03 51.14814 -0.20378 210 ft 17 kts 257°
2026-05-06 17:03 51.14790 -0.20550 208 ft 16 kts 258°
2026-05-06 17:04 51.14765 -0.20727 204 ft 16 kts 257°
2026-05-06 17:04 51.14757 -0.20783 204 ft 6 kts 257°
2026-05-06 17:04 51.14740 -0.20903 215 ft 12 kts 257°
2026-05-06 17:04 51.14721 -0.21042 209 ft 13 kts 257°
2026-05-06 17:05 51.14700 -0.21194 211 ft 15 kts 257°
2026-05-06 17:05 51.14656 -0.21329 209 ft 13 kts 200°
2026-05-06 17:05 51.14565 -0.21300 208 ft 14 kts 150°
2026-05-06 17:05 51.14520 -0.21172 206 ft 12 kts 84°
2026-05-06 17:06 51.14527 -0.21124 207 ft 0 kts 77°
2026-05-06 17:06 51.14527 -0.21123 207 ft 1 kts 77°
2026-05-06 17:06 51.14564 -0.20850 208 ft 61 kts 77°
2026-05-06 17:06 51.14709 -0.19820 209 ft 127 kts 77°
2026-05-06 17:07 51.14935 -0.18166 307 ft 168 kts 78°
2026-05-06 17:07 51.15168 -0.16399 1107 ft 161 kts 76°
2026-05-06 17:07 51.15411 -0.14684 1834 ft 157 kts 76°
2026-05-06 17:07 51.15647 -0.12982 2436 ft 157 kts 75°
2026-05-06 17:08 51.15881 -0.11285 2996 ft 158 kts 75°
2026-05-06 17:08 51.16129 -0.09503 3354 ft 175 kts 75°
2026-05-06 17:08 51.16408 -0.07497 3630 ft 197 kts 75°
2026-05-06 17:08 51.17007 -0.05471 3899 ft 213 kts 42°
2026-05-06 17:09 51.18371 -0.04544 4262 ft 222 kts
2026-05-06 17:09 51.19925 -0.04792 4841 ft 227 kts 348°
2026-05-06 17:09 51.21460 -0.05420 5450 ft 229 kts 341°
2026-05-06 17:09 51.22735 -0.06907 6014 ft 235 kts 304°
2026-05-06 17:10 51.23220 -0.09479 6335 ft 259 kts 272°
2026-05-06 17:10 51.23027 -0.12424 6810 ft 272 kts 260°
2026-05-06 17:10 51.22582 -0.15386 7499 ft 276 kts 256°
2026-05-06 17:10 51.22082 -0.18362 8203 ft 279 kts 256°
2026-05-06 17:11 51.21605 -0.21339 8906 ft 282 kts 257°
2026-05-06 17:11 51.21159 -0.24397 9589 ft 284 kts 259°
2026-05-06 17:11 51.20748 -0.27484 10282 ft 286 kts 260°
2026-05-06 17:11 51.20361 -0.30606 10951 ft 288 kts 260°
2026-05-06 17:12 51.19990 -0.33753 11610 ft 290 kts 261°
2026-05-06 17:12 51.19611 -0.36925 12270 ft 292 kts 260°
2026-05-06 17:12 51.19209 -0.40110 12904 ft 295 kts 259°
2026-05-06 17:12 51.18788 -0.43321 13524 ft 297 kts 259°
2026-05-06 17:13 51.18359 -0.46553 14128 ft 300 kts 259°
2026-05-06 17:13 51.17926 -0.49814 14734 ft 302 kts 259°
2026-05-06 17:13 51.17456 -0.53085 15330 ft 304 kts 254°
2026-05-06 17:13 51.16680 -0.56306 15541 ft 320 kts 249°
2026-05-06 17:14 51.15789 -0.59668 15687 ft 338 kts 248°
2026-05-06 17:14 51.14844 -0.63190 15815 ft 354 kts 248°
2026-05-06 17:14 51.13856 -0.66864 16046 ft 366 kts 248°
2026-05-06 17:14 51.12846 -0.70619 16473 ft 371 kts 248°
2026-05-06 17:15 51.11823 -0.74417 16965 ft 374 kts 248°
2026-05-06 17:15 51.10796 -0.78236 17468 ft 377 kts 248°
2026-05-06 17:15 51.09764 -0.82082 17948 ft 380 kts 248°
2026-05-06 17:15 51.08722 -0.85957 18415 ft 382 kts 248°
2026-05-06 17:16 51.07674 -0.89852 18871 ft 384 kts 248°
2026-05-06 17:16 51.06618 -0.93776 19315 ft 387 kts 248°
2026-05-06 17:16 51.05554 -0.97718 19786 ft 389 kts 248°
2026-05-06 17:16 51.04482 -1.01680 20230 ft 391 kts 248°
2026-05-06 17:17 51.03402 -1.05660 20647 ft 394 kts 248°
2026-05-06 17:17 51.02313 -1.09662 21059 ft 396 kts 247°
2026-05-06 17:17 51.01216 -1.13685 21469 ft 398 kts 248°
2026-05-06 17:17 51.00112 -1.17727 21881 ft 400 kts 248°
2026-05-06 17:18 50.99003 -1.21790 22276 ft 402 kts 247°
2026-05-06 17:18 50.97890 -1.25871 22668 ft 404 kts 247°
2026-05-06 17:18 50.96709 -1.29870 23031 ft 407 kts 241°
2026-05-06 17:18 50.95109 -1.33594 23400 ft 411 kts 231°
2026-05-06 17:19 50.93094 -1.36827 23768 ft 415 kts 221°
2026-05-06 17:19 50.90741 -1.39497 24124 ft 418 kts 214°
2026-05-06 17:19 50.88305 -1.42025 24474 ft 420 kts 215°
2026-05-06 17:19 50.85858 -1.44577 24820 ft 422 kts 215°
2026-05-06 17:20 50.83402 -1.47139 25153 ft 424 kts 215°
2026-05-06 17:20 50.80930 -1.49710 25483 ft 426 kts 215°
2026-05-06 17:20 50.78444 -1.52284 25815 ft 429 kts 214°
2026-05-06 17:20 50.75938 -1.54864 26114 ft 431 kts 214°
2026-05-06 17:21 50.73422 -1.57451 26425 ft 433 kts 214°
2026-05-06 17:21 50.70890 -1.60053 26728 ft 435 kts 214°
2026-05-06 17:21 50.68352 -1.62665 27028 ft 437 kts 214°
2026-05-06 17:21 50.65798 -1.65297 27316 ft 439 kts 214°
2026-05-06 17:22 50.63235 -1.67940 27605 ft 441 kts 214°
2026-05-06 17:22 50.61498 -1.69730 27795 ft 443 kts 214°
2026-05-06 17:22 50.58911 -1.72395 28073 ft 445 kts 214°
2026-05-06 17:22 50.56353 -1.75024 28338 ft 446 kts 214°
2026-05-06 17:23 50.53746 -1.77692 28587 ft 448 kts 214°
2026-05-06 17:23 50.51122 -1.80368 28824 ft 450 kts 214°
2026-05-06 17:23 50.48490 -1.83049 29066 ft 452 kts 214°
2026-05-06 17:23 50.45843 -1.85741 29287 ft 454 kts 214°
2026-05-06 17:24 50.43187 -1.88436 29492 ft 455 kts 214°
2026-05-06 17:24 50.40529 -1.91134 29698 ft 456 kts 214°
2026-05-06 17:24 50.37864 -1.93836 29978 ft 456 kts 214°
2026-05-06 17:24 50.35206 -1.96525 30250 ft 455 kts 214°
2026-05-06 17:25 50.32550 -1.99211 30541 ft 454 kts 214°
2026-05-06 17:25 50.29895 -2.01897 30810 ft 454 kts 214°
2026-05-06 17:25 50.27197 -2.04454 31068 ft 455 kts 208°
2026-05-06 17:25 50.24285 -2.06395 31320 ft 456 kts 199°
2026-05-06 17:26 50.21206 -2.07590 31561 ft 457 kts 190°
2026-05-06 17:26 50.18037 -2.08092 31807 ft 458 kts 186°
2026-05-06 17:26 50.14864 -2.08483 32048 ft 458 kts 186°
2026-05-06 17:26 50.11690 -2.08885 32298 ft 457 kts 186°
2026-05-06 17:27 50.08523 -2.09301 32549 ft 457 kts 186°
2026-05-06 17:27 50.05358 -2.09720 32795 ft 456 kts 186°
2026-05-06 17:27 50.02200 -2.10133 33029 ft 456 kts 186°
2026-05-06 17:27 49.99045 -2.10618 33263 ft 455 kts 190°
2026-05-06 17:28 49.95966 -2.11695 33485 ft 453 kts 198°
2026-05-06 17:28 49.92954 -2.13115 33701 ft 453 kts 198°
2026-05-06 17:28 49.89939 -2.14532 33920 ft 452 kts 198°
2026-05-06 17:28 49.86930 -2.15941 34135 ft 452 kts 198°
2026-05-06 17:29 49.83919 -2.17349 34348 ft 452 kts 198°
2026-05-06 17:29 49.80913 -2.18749 34548 ft 451 kts 198°
2026-05-06 17:29 49.77908 -2.20144 34748 ft 451 kts 198°
2026-05-06 17:29 49.74900 -2.21541 34934 ft 451 kts 198°
2026-05-06 17:30 49.71897 -2.22934 34996 ft 450 kts 198°
2026-05-06 17:30 49.65904 -2.25711 34999 ft 449 kts 198°
2026-05-06 17:31 49.59924 -2.28479 35003 ft 449 kts 198°
2026-05-06 17:31 49.53982 -2.31212 35003 ft 449 kts 198°
2026-05-06 17:32 49.47995 -2.33956 35000 ft 449 kts 198°
2026-05-06 17:32 49.42008 -2.36704 35004 ft 449 kts 198°
2026-05-06 17:33 49.36013 -2.39451 35002 ft 449 kts 198°
2026-05-06 17:33 49.30016 -2.42186 35004 ft 449 kts 198°
2026-05-06 17:34 49.24024 -2.44915 35006 ft 450 kts 198°
2026-05-06 17:34 49.18025 -2.47648 35009 ft 450 kts 198°
2026-05-06 17:35 49.12024 -2.50370 35016 ft 450 kts 198°
2026-05-06 17:35 49.06019 -2.53068 35011 ft 450 kts 198°
2026-05-06 17:36 48.97007 -2.57124 35009 ft 450 kts 198°
2026-05-06 17:36 48.90993 -2.59818 35008 ft 450 kts 198°
2026-05-06 17:37 48.84985 -2.62503 35007 ft 450 kts 198°
2026-05-06 17:37 48.78977 -2.65182 35005 ft 450 kts 198°
2026-05-06 17:38 48.72964 -2.67860 35005 ft 450 kts 198°
2026-05-06 17:38 48.66949 -2.70536 35006 ft 451 kts 198°
2026-05-06 17:39 48.60934 -2.73204 35005 ft 451 kts 197°
2026-05-06 17:39 48.54914 -2.75863 35004 ft 451 kts 197°
2026-05-06 17:40 48.48896 -2.78514 35007 ft 451 kts 197°
2026-05-06 17:40 48.42873 -2.81163 35004 ft 451 kts 197°
2026-05-06 17:41 48.36851 -2.83813 35005 ft 451 kts 197°
2026-05-06 17:41 48.30826 -2.86452 35008 ft 451 kts 197°
2026-05-06 17:42 48.24840 -2.89058 35008 ft 451 kts 197°
2026-05-06 17:42 48.18812 -2.91687 35010 ft 451 kts 197°
2026-05-06 17:43 48.12783 -2.94309 35001 ft 451 kts 197°
2026-05-06 17:43 48.06757 -2.96920 35005 ft 451 kts 197°
2026-05-06 17:44 48.00734 -2.99524 34995 ft 451 kts 197°
2026-05-06 17:44 47.94705 -3.02123 34985 ft 451 kts 197°
2026-05-06 17:45 47.88673 -3.04726 34983 ft 451 kts 197°
2026-05-06 17:45 47.82634 -3.07321 34982 ft 452 kts 197°
2026-05-06 17:46 47.76593 -3.09904 34982 ft 452 kts 197°
2026-05-06 17:46 47.70547 -3.12482 34986 ft 452 kts 197°
2026-05-06 17:47 47.64500 -3.15049 34983 ft 452 kts 197°
2026-05-06 17:47 47.58449 -3.17626 34980 ft 453 kts 197°
2026-05-06 17:48 47.52393 -3.20203 34982 ft 453 kts 197°
2026-05-06 17:48 47.46335 -3.22764 34982 ft 453 kts 197°
2026-05-06 17:49 47.40274 -3.25321 34983 ft 453 kts 197°
2026-05-06 17:49 47.34216 -3.27862 34982 ft 452 kts 197°
2026-05-06 17:50 47.28161 -3.30397 34982 ft 453 kts 197°
2026-05-06 17:50 47.22103 -3.32941 34979 ft 453 kts 197°
2026-05-06 17:51 47.16048 -3.35477 34983 ft 453 kts 197°
2026-05-06 17:51 47.09986 -3.38005 34987 ft 453 kts 197°
2026-05-06 17:52 47.03964 -3.40508 34994 ft 453 kts 197°
2026-05-06 17:52 46.97901 -3.43032 34989 ft 453 kts 197°
2026-05-06 17:53 46.91827 -3.45541 34999 ft 454 kts 197°
2026-05-06 17:53 46.85754 -3.48045 35001 ft 453 kts 197°
2026-05-06 17:54 46.79683 -3.50551 34987 ft 453 kts 197°
2026-05-06 17:54 46.73615 -3.53055 34997 ft 453 kts 197°
2026-05-06 17:55 46.67544 -3.55547 34994 ft 453 kts 197°
2026-05-06 17:55 46.61474 -3.58034 35005 ft 453 kts 197°
2026-05-06 17:56 46.55398 -3.60509 35000 ft 453 kts 197°
2026-05-06 17:56 46.49323 -3.62986 35003 ft 454 kts 197°
2026-05-06 17:57 46.43244 -3.65445 35004 ft 453 kts 197°
2026-05-06 17:57 46.37170 -3.67909 35005 ft 453 kts 197°
2026-05-06 17:58 46.31084 -3.70080 35001 ft 455 kts 188°
2026-05-06 17:58 46.24784 -3.71025 35000 ft 455 kts 187°
2026-05-06 17:59 46.18482 -3.71961 35001 ft 455 kts 187°
2026-05-06 17:59 46.12183 -3.72900 35014 ft 455 kts 187°
2026-05-06 18:00 46.05886 -3.73835 35013 ft 455 kts 187°
2026-05-06 18:00 45.99591 -3.74773 35010 ft 455 kts 187°
2026-05-06 18:01 45.93297 -3.75722 35007 ft 454 kts 187°
2026-05-06 18:01 45.87011 -3.76654 35011 ft 454 kts 187°
2026-05-06 18:02 45.80719 -3.77571 35010 ft 455 kts 187°
2026-05-06 18:02 45.74423 -3.78488 35015 ft 455 kts 187°
2026-05-06 18:03 45.68126 -3.79405 35017 ft 455 kts 187°
2026-05-06 18:03 45.61831 -3.80332 35020 ft 455 kts 187°
2026-05-06 18:04 45.55529 -3.81251 35021 ft 455 kts 187°
2026-05-06 18:04 45.49235 -3.82173 35021 ft 455 kts 187°
2026-05-06 18:05 45.42935 -3.83103 35023 ft 455 kts 187°
2026-05-06 18:05 45.36678 -3.84006 35027 ft 455 kts 187°
2026-05-06 18:06 45.30374 -3.84909 35027 ft 455 kts 187°
2026-05-06 18:06 45.24072 -3.85828 35030 ft 455 kts 187°
2026-05-06 18:07 45.17771 -3.86733 35034 ft 455 kts 187°
2026-05-06 18:07 45.11468 -3.87628 35035 ft 455 kts 187°
2026-05-06 18:08 45.05167 -3.88528 35035 ft 455 kts 188°
2026-05-06 18:08 44.98866 -3.89438 35035 ft 455 kts 188°
2026-05-06 18:09 44.92564 -3.90330 35036 ft 455 kts 188°
2026-05-06 18:09 44.86264 -3.91231 35038 ft 455 kts 188°
2026-05-06 18:10 44.79970 -3.92123 35036 ft 454 kts 188°
2026-05-06 18:10 44.73677 -3.93021 35035 ft 454 kts 188°
2026-05-06 18:11 44.68449 -3.93762 35036 ft 454 kts 188°
2026-05-06 18:11 44.62163 -3.94639 35042 ft 454 kts 188°
2026-05-06 18:12 44.55877 -3.95519 35041 ft 454 kts 188°
2026-05-06 18:12 44.49596 -3.96399 35041 ft 454 kts 188°
2026-05-06 18:13 44.43318 -3.97288 35044 ft 453 kts 188°
2026-05-06 18:13 44.37039 -3.98173 35046 ft 454 kts 188°
2026-05-06 18:14 44.30733 -3.98557 35047 ft 456 kts 178°
2026-05-06 18:14 44.24396 -3.97915 35049 ft 456 kts 178°
2026-05-06 18:15 44.18058 -3.97293 35049 ft 457 kts 178°
2026-05-06 18:15 44.11720 -3.96678 35048 ft 456 kts 178°
2026-05-06 18:16 44.05386 -3.96066 35048 ft 456 kts 178°
2026-05-06 18:16 43.99061 -3.95445 35048 ft 456 kts 178°
2026-05-06 18:17 43.92775 -3.94827 35046 ft 456 kts 178°
2026-05-06 18:17 43.86457 -3.94221 35044 ft 455 kts 178°
2026-05-06 18:18 43.80137 -3.93619 35044 ft 455 kts 179°
2026-05-06 18:18 43.73813 -3.93015 35044 ft 455 kts 178°
2026-05-06 18:19 43.67493 -3.92400 35045 ft 455 kts 179°
2026-05-06 18:19 43.61175 -3.91789 35046 ft 455 kts 179°
2026-05-06 18:20 43.54857 -3.91194 35048 ft 455 kts 179°
2026-05-06 18:20 43.48533 -3.90594 35048 ft 455 kts 179°
2026-05-06 18:21 43.42243 -3.90635 35050 ft 450 kts 189°
2026-05-06 18:21 43.36021 -3.91577 35049 ft 450 kts 189°
2026-05-06 18:22 43.29796 -3.92499 35052 ft 450 kts 189°
2026-05-06 18:22 43.23574 -3.93407 35053 ft 450 kts 189°
2026-05-06 18:23 43.17356 -3.94321 35053 ft 449 kts 189°
2026-05-06 18:23 43.11150 -3.95249 35056 ft 449 kts 189°
2026-05-06 18:24 43.04953 -3.96168 35049 ft 447 kts 189°
2026-05-06 18:24 42.98768 -3.97074 35045 ft 447 kts 189°
2026-05-06 18:25 42.92593 -3.97966 35040 ft 445 kts 189°
2026-05-06 18:25 42.86437 -3.98855 35034 ft 445 kts 189°
2026-05-06 18:26 42.80289 -3.99753 35028 ft 444 kts 189°
2026-05-06 18:26 42.74193 -4.00637 35022 ft 443 kts 189°
2026-05-06 18:27 42.68073 -4.01532 35018 ft 442 kts 189°
2026-05-06 18:27 42.61959 -4.02426 35018 ft 441 kts 189°
2026-05-06 18:28 42.55855 -4.03313 35009 ft 441 kts 189°
2026-05-06 18:28 42.49757 -4.04188 35007 ft 440 kts 189°
2026-05-06 18:29 42.43668 -4.05062 35004 ft 440 kts 189°
2026-05-06 18:29 42.37593 -4.05941 35000 ft 439 kts 190°
2026-05-06 18:30 42.31519 -4.06807 34994 ft 439 kts 190°
2026-05-06 18:30 42.25452 -4.07687 35003 ft 439 kts 190°
2026-05-06 18:31 42.19387 -4.08558 34999 ft 438 kts 189°
2026-05-06 18:31 42.13327 -4.09417 34989 ft 438 kts 189°
2026-05-06 18:32 42.07266 -4.10275 34984 ft 438 kts 189°
2026-05-06 18:32 42.01204 -4.11125 34984 ft 438 kts 189°
2026-05-06 18:33 41.95128 -4.11853 34985 ft 439 kts 188°
2026-05-06 18:33 41.89041 -4.12499 34984 ft 439 kts 188°
2026-05-06 18:34 41.82953 -4.13168 34986 ft 439 kts 188°
2026-05-06 18:34 41.76874 -4.13861 34981 ft 438 kts 188°
2026-05-06 18:35 41.70800 -4.14561 34978 ft 438 kts 189°
2026-05-06 18:35 41.64732 -4.15251 34979 ft 437 kts 188°
2026-05-06 18:36 41.58670 -4.15928 34977 ft 437 kts 188°
2026-05-06 18:36 41.52610 -4.16612 34977 ft 437 kts 188°
2026-05-06 18:37 41.46557 -4.17291 34976 ft 436 kts 188°
2026-05-06 18:37 41.40553 -4.17959 34979 ft 436 kts 188°
2026-05-06 18:38 41.34509 -4.18637 34976 ft 436 kts 189°
2026-05-06 18:38 41.28467 -4.19314 34978 ft 435 kts 189°
2026-05-06 18:39 41.22438 -4.19992 34979 ft 435 kts 189°
2026-05-06 18:40 41.13411 -4.21005 34977 ft 433 kts 189°
2026-05-06 18:40 41.07407 -4.21676 34976 ft 433 kts 189°
2026-05-06 18:41 41.01415 -4.22342 34976 ft 432 kts 189°
2026-05-06 18:41 40.95439 -4.22995 34978 ft 430 kts 189°
2026-05-06 18:42 40.89473 -4.23651 34974 ft 430 kts 189°
2026-05-06 18:42 40.83514 -4.24316 34972 ft 430 kts 189°
2026-05-06 18:43 40.77562 -4.24984 34970 ft 429 kts 189°
2026-05-06 18:43 40.71615 -4.25634 34971 ft 429 kts 189°
2026-05-06 18:44 40.65672 -4.26266 34972 ft 428 kts 189°
2026-05-06 18:44 40.59749 -4.26921 34971 ft 426 kts 189°
2026-05-06 18:45 40.53848 -4.27580 34965 ft 425 kts 189°
2026-05-06 18:45 40.47960 -4.28214 34962 ft 424 kts 189°
2026-05-06 18:46 40.42082 -4.28847 34961 ft 424 kts 189°
2026-05-06 18:46 40.36218 -4.29490 34961 ft 423 kts 189°
2026-05-06 18:47 40.30356 -4.30130 34955 ft 422 kts 190°
2026-05-06 18:47 40.24510 -4.30770 34953 ft 421 kts 189°
2026-05-06 18:48 40.18676 -4.31399 34947 ft 420 kts 189°
2026-05-06 18:48 40.12843 -4.32022 34945 ft 420 kts 189°
2026-05-06 18:49 40.07014 -4.32650 34945 ft 420 kts 189°
2026-05-06 18:49 40.01181 -4.33288 34946 ft 421 kts 189°
2026-05-06 18:50 39.95353 -4.33974 34944 ft 419 kts 192°
2026-05-06 18:50 39.89620 -4.35131 34945 ft 416 kts 195°
2026-05-06 18:51 39.83929 -4.36499 34941 ft 416 kts 195°
2026-05-06 18:51 39.78273 -4.37799 34935 ft 416 kts 194°
2026-05-06 18:52 39.72561 -4.39016 34932 ft 416 kts 194°
2026-05-06 18:52 39.66849 -4.40217 34936 ft 416 kts 194°
2026-05-06 18:53 39.61139 -4.41422 34932 ft 416 kts 194°
2026-05-06 18:53 39.55430 -4.42640 34931 ft 415 kts 194°
2026-05-06 18:54 39.49726 -4.43860 34927 ft 416 kts 194°
2026-05-06 18:54 39.44018 -4.45073 34925 ft 416 kts 194°
2026-05-06 18:55 39.38311 -4.46287 34923 ft 416 kts 194°
2026-05-06 18:55 39.32599 -4.47496 34925 ft 416 kts 194°
2026-05-06 18:56 39.26894 -4.48694 34921 ft 415 kts 194°
2026-05-06 18:56 39.21392 -4.50648 34920 ft 406 kts 209°
2026-05-06 18:57 39.16623 -4.54429 34920 ft 402 kts 217°
2026-05-06 18:57 39.11962 -4.58410 34918 ft 402 kts 216°
2026-05-06 18:58 39.08084 -4.61705 34912 ft 402 kts 216°
2026-05-06 18:58 39.03417 -4.65670 34909 ft 402 kts 217°
2026-05-06 18:59 38.98752 -4.69639 34909 ft 402 kts 216°
2026-05-06 18:59 38.94088 -4.73585 34906 ft 401 kts 216°
2026-05-06 19:00 38.89431 -4.77526 34895 ft 401 kts 216°
2026-05-06 19:00 38.87096 -4.79501 34694 ft 403 kts 216°
2026-05-06 19:00 38.84737 -4.81498 33637 ft 411 kts 216°
2026-05-06 19:00 38.82331 -4.83530 32639 ft 416 kts 216°
2026-05-06 19:01 38.79900 -4.85577 31655 ft 420 kts 216°
2026-05-06 19:01 38.77449 -4.87641 30793 ft 421 kts 216°
2026-05-06 19:01 38.75026 -4.89677 30309 ft 413 kts 216°
2026-05-06 19:01 38.72642 -4.91684 29793 ft 407 kts 216°
2026-05-06 19:02 38.70294 -4.93659 29288 ft 401 kts 216°
2026-05-06 19:02 38.67974 -4.95605 28779 ft 396 kts 216°
2026-05-06 19:02 38.65684 -4.97522 28292 ft 390 kts 216°
2026-05-06 19:02 38.63428 -4.99410 27794 ft 385 kts 216°
2026-05-06 19:03 38.61202 -5.01275 27310 ft 380 kts 216°
2026-05-06 19:03 38.59008 -5.03114 26825 ft 375 kts 216°
2026-05-06 19:03 38.56840 -5.04930 26352 ft 370 kts 216°
2026-05-06 19:03 38.54701 -5.06718 25888 ft 365 kts 215°
2026-05-06 19:04 38.52586 -5.08482 25438 ft 361 kts 215°
2026-05-06 19:04 38.50393 -5.10011 24960 ft 359 kts 206°
2026-05-06 19:04 38.48071 -5.11065 24490 ft 358 kts 200°
2026-05-06 19:04 38.45699 -5.11990 24031 ft 355 kts 200°
2026-05-06 19:05 38.43345 -5.12905 23578 ft 353 kts 200°
2026-05-06 19:05 38.41002 -5.13816 23135 ft 351 kts 200°
2026-05-06 19:05 38.38676 -5.14725 22709 ft 349 kts 200°
2026-05-06 19:05 38.36358 -5.15634 22276 ft 348 kts 200°
2026-05-06 19:06 38.34053 -5.16537 21854 ft 346 kts 200°
2026-05-06 19:06 38.31756 -5.17435 21433 ft 344 kts 200°
2026-05-06 19:06 38.29474 -5.18328 21012 ft 343 kts 200°
2026-05-06 19:06 38.27197 -5.19216 20591 ft 342 kts 199°
2026-05-06 19:07 38.24931 -5.20100 20164 ft 340 kts 199°
2026-05-06 19:07 38.22675 -5.20979 19728 ft 338 kts 199°
2026-05-06 19:07 38.20431 -5.21854 19294 ft 336 kts 199°
2026-05-06 19:07 38.18196 -5.22726 18849 ft 335 kts 199°
2026-05-06 19:08 38.15972 -5.23591 18405 ft 334 kts 199°
2026-05-06 19:08 38.13755 -5.24454 17952 ft 332 kts 199°
2026-05-06 19:08 38.11550 -5.25312 17499 ft 330 kts 198°
2026-05-06 19:08 38.09361 -5.26162 17045 ft 328 kts 198°
2026-05-06 19:09 38.07182 -5.27007 16591 ft 327 kts 198°
2026-05-06 19:09 38.05017 -5.27848 16141 ft 325 kts 198°
2026-05-06 19:09 38.02860 -5.28685 15714 ft 324 kts 198°
2026-05-06 19:09 38.00713 -5.29516 15251 ft 322 kts 198°
2026-05-06 19:10 37.98582 -5.30338 14791 ft 319 kts 198°
2026-05-06 19:10 37.96462 -5.31157 14347 ft 317 kts 198°
2026-05-06 19:10 37.94357 -5.31970 13908 ft 316 kts 198°
2026-05-06 19:10 37.92263 -5.32781 13463 ft 314 kts 198°
2026-05-06 19:11 37.90185 -5.33586 13017 ft 312 kts 198°
2026-05-06 19:11 37.88114 -5.34387 12574 ft 310 kts 197°
2026-05-06 19:11 37.86056 -5.35182 12160 ft 309 kts 197°
2026-05-06 19:11 37.84004 -5.35973 11706 ft 307 kts 197°
2026-05-06 19:12 37.81992 -5.36747 11276 ft 306 kts 197°
2026-05-06 19:12 37.79951 -5.37532 10844 ft 306 kts 197°
2026-05-06 19:12 37.77927 -5.38354 10424 ft 306 kts 202°
2026-05-06 19:12 37.76076 -5.39602 10176 ft 297 kts 214°
2026-05-06 19:13 37.74497 -5.41233 9893 ft 291 kts 222°
2026-05-06 19:13 37.72994 -5.42932 9717 ft 290 kts 222°
2026-05-06 19:13 37.71485 -5.44623 9595 ft 290 kts 221°
2026-05-06 19:13 37.69969 -5.46313 9490 ft 290 kts 222°
2026-05-06 19:14 37.68451 -5.48008 9091 ft 293 kts 222°
2026-05-06 19:14 37.66922 -5.49715 8651 ft 293 kts 222°
2026-05-06 19:14 37.65397 -5.51424 8219 ft 292 kts 222°
2026-05-06 19:14 37.63900 -5.53120 7859 ft 288 kts 222°
2026-05-06 19:15 37.62419 -5.54818 7458 ft 287 kts 223°
2026-05-06 19:15 37.60948 -5.56507 7065 ft 285 kts 222°
2026-05-06 19:15 37.59491 -5.58179 6687 ft 282 kts 222°
2026-05-06 19:15 37.58046 -5.59835 6289 ft 280 kts 222°
2026-05-06 19:16 37.56604 -5.61483 5917 ft 278 kts 222°
2026-05-06 19:16 37.55180 -5.63105 5381 ft 275 kts 221°
2026-05-06 19:16 37.53553 -5.64271 4822 ft 270 kts 192°
2026-05-06 19:16 37.51722 -5.64103 4258 ft 267 kts 157°
2026-05-06 19:17 37.50146 -5.62871 3617 ft 269 kts 143°
2026-05-06 19:17 37.48627 -5.61474 2955 ft 272 kts 148°
2026-05-06 19:17 37.46977 -5.60391 2648 ft 261 kts 160°
2026-05-06 19:17 37.45289 -5.59803 2499 ft 245 kts 178°
2026-05-06 19:18 37.43721 -5.60330 2417 ft 231 kts 214°
2026-05-06 19:18 37.42534 -5.61621 2288 ft 220 kts 231°
2026-05-06 19:18 37.41902 -5.63290 2212 ft 208 kts 258°
2026-05-06 19:18 37.41837 -5.65040 2114 ft 192 kts 269°
2026-05-06 19:19 37.41841 -5.66666 2035 ft 181 kts 269°
2026-05-06 19:19 37.41841 -5.68181 2009 ft 165 kts 268°
2026-05-06 19:19 37.41838 -5.69563 2026 ft 153 kts 268°
2026-05-06 19:19 37.41836 -5.70837 2013 ft 144 kts 268°
2026-05-06 19:20 37.41833 -5.72088 2009 ft 142 kts 268°
2026-05-06 19:20 37.41832 -5.73332 2014 ft 142 kts 268°
2026-05-06 19:20 37.41830 -5.74570 1992 ft 142 kts 268°
2026-05-06 19:20 37.41828 -5.75814 1876 ft 142 kts 269°
2026-05-06 19:21 37.41825 -5.77047 1725 ft 140 kts 268°
2026-05-06 19:21 37.41823 -5.78265 1558 ft 139 kts 268°
2026-05-06 19:21 37.41820 -5.79480 1378 ft 140 kts 268°
2026-05-06 19:21 37.41818 -5.80693 1195 ft 137 kts 268°
2026-05-06 19:22 37.41815 -5.81888 1016 ft 137 kts 268°
2026-05-06 19:22 37.41810 -5.83086 858 ft 137 kts 267°
2026-05-06 19:22 37.41800 -5.84282 635 ft 137 kts 267°
2026-05-06 19:22 37.41813 -5.85479 489 ft 138 kts 267°
2026-05-06 19:23 37.41808 -5.86681 291 ft 139 kts 268°
2026-05-06 19:23 37.41798 -5.87895 110 ft 137 kts 270°
2026-05-06 19:23 37.41795 -5.88922 104 ft 93 kts 270°
2026-05-06 19:23 37.41792 -5.89517 99 ft 39 kts 269°
2026-05-06 19:24 37.41818 -5.89769 98 ft 22 kts 305°
2026-05-06 19:24 37.41906 -5.89833 97 ft 9 kts 338°
2026-05-06 19:24 37.41972 -5.89867 96 ft 10 kts 338°
2026-05-06 19:24 37.42037 -5.89901 95 ft 12 kts 336°
2026-05-06 19:25 37.42112 -5.89929 94 ft 11 kts
2026-05-06 19:25 37.42163 -5.89952 94 ft 8 kts 313°
2026-05-06 19:25 37.42183 -5.89980 94 ft 0 kts 314°